| time (UTC) | temp F | wind direction | speed MPH | gust MPH | rain 1hr in | rain 24hr in | rain mn in | humidity % | barometer mb |
| 20260510153604 | 61 | 291 | 2.0 | 2.0 | 0.00 | 0.06 | 0.06 | 90 | 1013.8 |
| 20260510153104 | 61 | 268 | 1.0 | 6.0 | 0.00 | 0.06 | 0.06 | 89 | 1013.8 |
| 20260510152106 | 61 | 200 | 2.0 | 5.0 | 0.00 | 0.06 | 0.06 | 88 | 1013.9 |
| 20260510151619 | 61 | 121 | 2.0 | 2.0 | 0.00 | 0.06 | 0.06 | 87 | 1013.9 |
| 20260510151105 | 61 | 121 | 2.0 | 3.0 | 0.00 | 0.06 | 0.06 | 88 | 1014.0 |
| 20260510150105 | 61 | 119 | 2.0 | 5.0 | 0.00 | 0.06 | 0.06 | 87 | 1014.1 |
| 20260510145604 | 61 | 127 | 2.0 | 3.0 | 0.00 | 0.06 | 0.06 | 88 | 1014.1 |
| 20260510145105 | 61 | 124 | 2.0 | 3.0 | 0.00 | 0.06 | 0.06 | 88 | 1014.1 |
| 20260510144604 | 61 | 121 | 2.0 | 3.0 | 0.00 | 0.06 | 0.06 | 88 | 1014.1 |
| 20260510144103 | 61 | 118 | 1.0 | 2.0 | 0.00 | 0.06 | 0.06 | 87 | 1014.2 |
| 20260510142604 | 61 | 164 | 0.0 | 2.0 | 0.00 | 0.06 | 0.06 | 88 | 1014.3 |
| 20260510142104 | 61 | 164 | 0.0 | 2.0 | 0.00 | 0.06 | 0.06 | 87 | 1014.3 |
| 20260510141604 | 61 | 230 | 0.0 | 2.0 | 0.00 | 0.06 | 0.06 | 89 | 1014.3 |
| 20260510141104 | 61 | 236 | 0.0 | 2.0 | 0.00 | 0.06 | 0.06 | 89 | 1014.3 |
| 20260510140604 | 61 | 235 | 0.0 | 2.0 | 0.00 | 0.06 | 0.06 | 89 | 1014.3 |
| 20260510140106 | 61 | 159 | 0.0 | 2.0 | 0.00 | 0.06 | 0.06 | 90 | 1014.3 |
| 20260510135605 | 61 | 159 | 0.0 | 2.0 | 0.00 | 0.06 | 0.06 | 90 | 1014.4 |
| 20260510135104 | 61 | 179 | 0.0 | 2.0 | 0.00 | 0.06 | 0.06 | 89 | 1014.5 |
| 20260510134604 | 61 | 318 | 0.0 | 2.0 | 0.00 | 0.06 | 0.06 | 90 | 1014.5 |
| 20260510134104 | 61 | 318 | 0.0 | 2.0 | 0.00 | 0.06 | 0.06 | 90 | 1014.6 |
| 20260510133604 | 60 | 318 | 0.0 | 0.0 | 0.00 | 0.06 | 0.06 | 90 | 1014.7 |
| 20260510133103 | 60 | 318 | 1.0 | 1.0 | 0.00 | 0.06 | 0.06 | 90 | 1014.7 |
| 20260510132104 | 60 | 319 | 1.0 | 2.0 | 0.00 | 0.06 | 0.06 | 90 | 1014.7 |
| 20260510131605 | 60 | 318 | 1.0 | 3.0 | 0.00 | 0.06 | 0.06 | 89 | 1014.7 |
| 20260510131106 | 61 | 318 | 1.0 | 3.0 | 0.00 | 0.06 | 0.06 | 90 | 1014.7 |
| 20260510130604 | 61 | 319 | 1.0 | 3.0 | 0.00 | 0.06 | 0.06 | 90 | 1014.7 |
| 20260510125604 | 61 | 291 | 0.0 | 3.0 | 0.00 | 0.06 | 0.06 | 90 | 1014.8 |
| 20260510125111 | 61 | 286 | 2.0 | 2.0 | 0.00 | 0.06 | 0.06 | 90 | 1014.8 |
| 20260510124605 | 61 | 286 | 2.0 | 2.0 | 0.00 | 0.06 | 0.06 | 90 | 1014.8 |
| 20260510124104 | 60 | 285 | 1.0 | 3.0 | 0.00 | 0.06 | 0.06 | 90 | 1014.9 |
| 20260510123604 | 60 | 320 | 1.0 | 3.0 | 0.00 | 0.06 | 0.06 | 89 | 1014.9 |
| 20260510123107 | 60 | 259 | 1.0 | 2.0 | 0.00 | 0.06 | 0.06 | 89 | 1014.9 |
| 20260510122607 | 60 | 241 | 1.0 | 3.0 | 0.00 | 0.06 | 0.06 | 89 | 1015.0 |
| 20260510120605 | 60 | 318 | 2.0 | 5.0 | 0.00 | 0.06 | 0.06 | 89 | 1015.1 |
| 20260510120105 | 60 | 309 | 2.0 | 5.0 | 0.00 | 0.06 | 0.06 | 88 | 1015.1 |
| 20260510115603 | 60 | 313 | 2.0 | 5.0 | 0.00 | 0.06 | 0.06 | 88 | 1015.1 |
| 20260510115107 | 60 | 305 | 1.0 | 5.0 | 0.00 | 0.06 | 0.06 | 88 | 1015.1 |
| 20260510114604 | 60 | 308 | 0.0 | 2.0 | 0.00 | 0.06 | 0.06 | 88 | 1015.1 |
| 20260510114104 | 60 | 254 | 1.0 | 2.0 | 0.00 | 0.06 | 0.06 | 88 | 1015.1 |
| 20260510113604 | 60 | 323 | 1.0 | 2.0 | 0.00 | 0.06 | 0.06 | 88 | 1015.1 |
| 20260510113104 | 60 | 323 | 1.0 | 2.0 | 0.00 | 0.06 | 0.06 | 88 | 1015.1 |
| 20260510112604 | 60 | 323 | 1.0 | 3.0 | 0.00 | 0.06 | 0.06 | 88 | 1015.1 |
| 20260510112104 | 60 | 334 | 1.0 | 3.0 | 0.00 | 0.06 | 0.06 | 88 | 1015.1 |
| 20260510111604 | 60 | 352 | 1.0 | 2.0 | 0.00 | 0.06 | 0.06 | 88 | 1015.1 |
| 20260510111104 | 60 | 359 | 1.0 | 2.0 | 0.00 | 0.06 | 0.06 | 89 | 1015.3 |
| 20260510110604 | 60 | 46 | 1.0 | 3.0 | 0.00 | 0.06 | 0.06 | 89 | 1015.4 |
| 20260510110104 | 60 | 175 | 1.0 | 2.0 | 0.00 | 0.06 | 0.06 | 89 | 1015.4 |
| 20260510105607 | 60 | 171 | 0.0 | 3.0 | 0.00 | 0.06 | 0.06 | 89 | 1015.4 |
| 20260510104604 | 60 | 263 | 0.0 | 2.0 | 0.00 | 0.06 | 0.06 | 88 | 1015.4 |
| 20260510104104 | 60 | 263 | 1.0 | 2.0 | 0.00 | 0.06 | 0.06 | 88 | 1015.4 |
| 20260510103605 | 60 | 293 | 1.0 | 2.0 | 0.00 | 0.06 | 0.06 | 88 | 1015.4 |
| 20260510103104 | 60 | 278 | 1.0 | 2.0 | 0.00 | 0.06 | 0.06 | 88 | 1015.4 |
| 20260510102604 | 61 | 161 | 0.0 | 2.0 | 0.00 | 0.06 | 0.06 | 88 | 1015.5 |
| 20260510102104 | 60 | 155 | 1.0 | 2.0 | 0.00 | 0.06 | 0.06 | 89 | 1015.5 |
| 20260510101604 | 60 | 152 | 1.0 | 2.0 | 0.00 | 0.06 | 0.06 | 89 | 1015.5 |
| 20260510100603 | 60 | 162 | 0.0 | 2.0 | 0.00 | 0.06 | 0.06 | 90 | 1015.6 |
| 20260510095604 | 60 | 249 | 1.0 | 5.0 | 0.00 | 0.06 | 0.06 | 90 | 1015.5 |
| 20260510095105 | 59 | 151 | 1.0 | 3.0 | 0.00 | 0.06 | 0.06 | 90 | 1015.5 |
| 20260510094605 | 59 | 151 | 0.0 | 2.0 | 0.00 | 0.06 | 0.06 | 90 | 1015.5 |
| 20260510094104 | 59 | 152 | 1.0 | 2.0 | 0.00 | 0.06 | 0.06 | 91 | 1015.5 |
| 20260510093604 | 59 | 146 | 1.0 | 2.0 | 0.00 | 0.06 | 0.06 | 91 | 1015.5 |
| 20260510092605 | 59 | 134 | 1.0 | 2.0 | 0.00 | 0.06 | 0.06 | 91 | 1015.6 |
| 20260510092104 | 59 | 136 | 1.0 | 3.0 | 0.00 | 0.06 | 0.06 | 92 | 1015.7 |
| 20260510091605 | 59 | 136 | 0.0 | 2.0 | 0.00 | 0.06 | 0.06 | 92 | 1015.7 |
| 20260510090604 | 59 | 135 | 0.0 | 3.0 | 0.00 | 0.06 | 0.06 | 92 | 1015.6 |
| 20260510085604 | 59 | 135 | 0.0 | 2.0 | 0.00 | 0.06 | 0.06 | 92 | 1015.7 |
| 20260510085104 | 58 | 135 | 1.0 | 2.0 | 0.00 | 0.06 | 0.06 | 92 | 1015.7 |
| 20260510084606 | 58 | 135 | 1.0 | 2.0 | 0.00 | 0.06 | 0.06 | 92 | 1015.7 |
| 20260510084104 | 58 | 136 | 1.0 | 2.0 | 0.00 | 0.06 | 0.06 | 92 | 1015.7 |
| 20260510083609 | 58 | 151 | 1.0 | 3.0 | 0.00 | 0.06 | 0.06 | 92 | 1015.7 |
| 20260510083104 | 58 | 148 | 0.0 | 3.0 | 0.00 | 0.06 | 0.06 | 92 | 1015.7 |
| 20260510082609 | 58 | 279 | 0.0 | 3.0 | 0.00 | 0.06 | 0.06 | 93 | 1015.7 |
| 20260510082104 | 58 | 118 | 0.0 | 2.0 | 0.00 | 0.06 | 0.06 | 93 | 1015.7 |
| 20260510081604 | 58 | 42 | 0.0 | 2.0 | 0.00 | 0.06 | 0.06 | 93 | 1015.7 |
| 20260510081105 | 58 | 40 | 1.0 | 2.0 | 0.00 | 0.06 | 0.06 | 93 | 1015.7 |
| 20260510080104 | 58 | 259 | 1.0 | 3.0 | 0.00 | 0.06 | 0.06 | 93 | 1015.7 |
| 20260510075604 | 58 | 195 | 0.0 | 2.0 | 0.00 | 0.06 | 0.06 | 93 | 1015.6 |
| 20260510075105 | 58 | 242 | 1.0 | 2.0 | 0.00 | 0.06 | 0.06 | 93 | 1015.6 |
| 20260510074605 | 58 | 242 | 1.0 | 2.0 | 0.00 | 0.06 | 0.06 | 94 | 1015.6 |
| 20260510074104 | 58 | 242 | 1.0 | 2.0 | 0.00 | 0.06 | 0.06 | 94 | 1015.5 |
| 20260510073104 | 58 | 128 | 0.0 | 2.0 | 0.00 | 0.06 | 0.06 | 94 | 1015.5 |
| 20260510072604 | 58 | 126 | 0.0 | 2.0 | 0.00 | 0.06 | 0.06 | 94 | 1015.5 |
| 20260510072104 | 58 | 126 | 0.0 | 2.0 | 0.00 | 0.06 | 0.06 | 94 | 1015.5 |
| 20260510071605 | 58 | 126 | 0.0 | 2.0 | 0.00 | 0.06 | 0.06 | 94 | 1015.5 |
| 20260510071104 | 58 | 126 | 0.0 | 2.0 | 0.00 | 0.06 | 0.06 | 95 | 1015.6 |
| 20260510070606 | 57 | 126 | 0.0 | 2.0 | 0.00 | 0.06 | 0.06 | 95 | 1015.6 |
| 20260510070106 | 57 | 126 | 0.0 | 2.0 | 0.00 | 0.06 | 0.06 | 95 | 1015.6 |
| 20260510065603 | 57 | 126 | 0.0 | 2.0 | 0.00 | 0.06 | 0.06 | 95 | 1015.7 |
| 20260510065104 | 57 | 126 | 1.0 | 3.0 | 0.00 | 0.06 | 0.06 | 95 | 1015.7 |
| 20260510064103 | 57 | 128 | 2.0 | 2.0 | 0.00 | 0.06 | 0.06 | 95 | 1015.6 |
| 20260510063604 | 57 | 128 | 2.0 | 5.0 | 0.00 | 0.06 | 0.06 | 95 | 1015.5 |
| 20260510063104 | 57 | 125 | 1.0 | 5.0 | 0.00 | 0.06 | 0.06 | 95 | 1015.5 |
| 20260510061105 | 57 | 138 | 1.0 | 3.0 | 0.00 | 0.06 | 0.06 | 95 | 1015.4 |
| 20260510060104 | 57 | 139 | 0.0 | 2.0 | 0.00 | 0.06 | 0.06 | 95 | 1015.4 |
| 20260510055604 | 57 | 139 | 0.0 | 1.0 | 0.01 | 0.06 | 0.06 | 95 | 1015.3 |
| 20260510055104 | 57 | 139 | 1.0 | 1.0 | 0.01 | 0.06 | 0.06 | 95 | 1015.3 |
| 20260510054604 | 57 | 139 | 1.0 | 2.0 | 0.01 | 0.06 | 0.06 | 95 | 1015.3 |
| 20260510054104 | 57 | 139 | 1.0 | 2.0 | 0.01 | 0.06 | 0.06 | 95 | 1015.2 |
| 20260510053604 | 56 | 139 | 1.0 | 3.0 | 0.01 | 0.06 | 0.06 | 95 | 1015.2 |
| 20260510053104 | 56 | 146 | 1.0 | 3.0 | 0.02 | 0.06 | 0.06 | 95 | 1015.2 |
| 20260510052104 | 56 | 147 | 0.0 | 2.0 | 0.02 | 0.06 | 0.06 | 95 | 1015.1 |
| 20260510051104 | 56 | 147 | 0.0 | 1.0 | 0.02 | 0.06 | 0.06 | 94 | 1015.1 |
| 20260510050604 | 56 | 147 | 0.0 | 2.0 | 0.04 | 0.06 | 0.06 | 94 | 1015.1 |
| 20260510050104 | 56 | 147 | 2.0 | 2.0 | 0.04 | 0.06 | 0.06 | 94 | 1015.1 |
| 20260510045604 | 56 | 147 | 2.0 | 1.0 | 0.03 | 0.05 | 0.05 | 94 | 1015.0 |
| 20260510045104 | 56 | 147 | 2.0 | 2.0 | 0.03 | 0.05 | 0.05 | 93 | 1015.0 |
| 20260510044604 | 56 | 148 | 2.0 | 3.0 | 0.03 | 0.05 | 0.05 | 93 | 1015.0 |
| 20260510044105 | 56 | 154 | 2.0 | 5.0 | 0.03 | 0.05 | 0.05 | 93 | 1015.0 |
| 20260510042603 | 56 | 284 | 1.0 | 3.0 | 0.02 | 0.04 | 0.04 | 92 | 1015.1 |
| 20260510042104 | 56 | 265 | 2.0 | 2.0 | 0.02 | 0.04 | 0.04 | 92 | 1015.1 |
| 20260510041604 | 56 | 84 | 2.0 | 2.0 | 0.02 | 0.04 | 0.04 | 92 | 1015.1 |
| 20260510041104 | 56 | 37 | 1.0 | 2.0 | 0.02 | 0.04 | 0.04 | 92 | 1015.0 |
| 20260510040604 | 56 | 148 | 1.0 | 5.0 | 0.01 | 0.02 | 0.02 | 92 | 1014.9 |
| 20260510040104 | 56 | 225 | 2.0 | 3.0 | 0.01 | 0.02 | 0.02 | 91 | 1014.9 |
| 20260510035604 | 56 | 138 | 2.0 | 3.0 | 0.01 | 0.02 | 0.02 | 91 | 1014.9 |
| 20260510035119 | 56 | 249 | 2.0 | 5.0 | 0.01 | 0.02 | 0.02 | 91 | 1014.9 |
| 20260510034604 | 56 | 255 | 2.0 | 6.0 | 0.02 | 0.02 | 0.02 | 91 | 1014.9 |
| 20260510034104 | 56 | 283 | 2.0 | 5.0 | 0.02 | 0.02 | 0.02 | 90 | 1015.0 |
| 20260510033103 | 56 | 154 | 2.0 | 5.0 | 0.02 | 0.02 | 0.02 | 90 | 1015.0 |
| 20260510032604 | 57 | 258 | 2.0 | 3.0 | 0.02 | 0.02 | 0.02 | 89 | 1014.9 |
| 20260510032104 | 57 | 351 | 2.0 | 3.0 | 0.02 | 0.02 | 0.02 | 89 | 1014.9 |
| 20260510030604 | 58 | 303 | 2.0 | 6.0 | 0.01 | 0.01 | 0.01 | 87 | 1014.5 |
| 20260510025604 | 58 | 325 | 2.0 | 5.0 | 0.01 | 0.01 | 0.01 | 87 | 1014.5 |
| 20260510025104 | 58 | 303 | 2.0 | 5.0 | 0.01 | 0.01 | 0.01 | 86 | 1014.5 |
| 20260510024604 | 59 | 295 | 2.0 | 5.0 | 0.00 | 0.00 | 0.00 | 87 | 1014.5 |
| 20260510023103 | 58 | 283 | 1.0 | 3.0 | 0.00 | 0.00 | 0.00 | 88 | 1014.3 |
| 20260510022604 | 58 | 133 | 0.0 | 2.0 | 0.00 | 0.00 | 0.00 | 88 | 1014.3 |
| 20260510022104 | 58 | 133 | 0.0 | 2.0 | 0.00 | 0.00 | 0.00 | 88 | 1014.3 |
| 20260510021607 | 58 | 133 | 0.0 | 2.0 | 0.00 | 0.00 | 0.00 | 88 | 1014.3 |
| 20260510020604 | 58 | 133 | 1.0 | 0.0 | 0.00 | 0.00 | 0.00 | 88 | 1014.4 |
| 20260510020104 | 58 | 133 | 1.0 | 2.0 | 0.00 | 0.00 | 0.00 | 88 | 1014.4 |
| 20260510015604 | 58 | 133 | 0.0 | 2.0 | 0.00 | 0.00 | 0.00 | 88 | 1014.3 |
| 20260510015105 | 58 | 133 | 2.0 | 2.0 | 0.00 | 0.00 | 0.00 | 88 | 1014.3 |
| 20260510014606 | 58 | 133 | 2.0 | 2.0 | 0.00 | 0.00 | 0.00 | 88 | 1014.3 |
| 20260510013604 | 58 | 20 | 2.0 | 3.0 | 0.00 | 0.00 | 0.00 | 87 | 1014.7 |
| 20260510012604 | 58 | 118 | 2.0 | 5.0 | 0.00 | 0.00 | 0.00 | 88 | 1014.8 |
| 20260510011605 | 58 | 127 | 2.0 | 6.0 | 0.00 | 0.00 | 0.00 | 87 | 1014.8 |
| 20260510011104 | 58 | 123 | 2.0 | 5.0 | 0.00 | 0.00 | 0.00 | 87 | 1014.9 |
| 20260510010611 | 58 | 117 | 2.0 | 5.0 | 0.00 | 0.00 | 0.00 | 87 | 1014.9 |
| 20260510010105 | 58 | 117 | 2.0 | 3.0 | 0.00 | 0.00 | 0.00 | 86 | 1014.9 |
| 20260510005607 | 58 | 117 | 2.0 | 5.0 | 0.00 | 0.00 | 0.00 | 86 | 1015.0 |
| 20260510005105 | 58 | 125 | 1.0 | 5.0 | 0.00 | 0.00 | 0.00 | 86 | 1015.1 |
| 20260510004604 | 58 | 125 | 1.0 | 2.0 | 0.00 | 0.00 | 0.00 | 87 | 1015.1 |
| 20260510004104 | 58 | 125 | 1.0 | 2.0 | 0.00 | 0.00 | 0.00 | 87 | 1015.2 |
| 20260510003604 | 57 | 125 | 0.0 | 2.0 | 0.00 | 0.00 | 0.00 | 87 | 1015.3 |
| 20260510003104 | 57 | 125 | 1.0 | 0.0 | 0.00 | 0.00 | 0.00 | 87 | 1015.3 |
| 20260510002604 | 57 | 125 | 1.0 | 0.0 | 0.00 | 0.00 | 0.00 | 87 | 1015.4 |
| 20260510002119 | 57 | 125 | 2.0 | 2.0 | 0.00 | 0.00 | 0.00 | 87 | 1015.5 |
| 20260510001604 | 57 | 125 | 2.0 | 2.0 | 0.00 | 0.00 | 0.00 | 87 | 1015.5 |
| 20260510001107 | 58 | 125 | 1.0 | 3.0 | 0.00 | 0.00 | 0.00 | 86 | 1015.5 |
| 20260510000604 | 58 | 125 | 1.0 | 3.0 | 0.00 | 0.00 | 0.00 | 86 | 1015.5 |
| 20260509235606 | 58 | 125 | 0.0 | 2.0 | 0.00 | 0.00 | 0.00 | 86 | 1015.7 |
| 20260509235104 | 58 | 125 | 0.0 | 0.0 | 0.00 | 0.00 | 0.00 | 86 | 1015.8 |
| 20260509233604 | 58 | 125 | 0.0 | 2.0 | 0.00 | 0.00 | 0.00 | 87 | 1015.8 |
| 20260509232619 | 58 | 125 | 1.0 | 0.0 | 0.00 | 0.00 | 0.00 | 86 | 1015.9 |
| 20260509231605 | 58 | 125 | 1.0 | 2.0 | 0.00 | 0.00 | 0.00 | 86 | 1015.9 |
| 20260509231104 | 59 | 125 | 1.0 | 2.0 | 0.00 | 0.00 | 0.00 | 86 | 1015.8 |
| 20260509230604 | 59 | 125 | 0.0 | 2.0 | 0.00 | 0.00 | 0.00 | 86 | 1015.7 |
| 20260509230104 | 59 | 125 | 1.0 | 0.0 | 0.00 | 0.00 | 0.00 | 86 | 1015.7 |
| 20260509225604 | 59 | 125 | 1.0 | 2.0 | 0.00 | 0.00 | 0.00 | 86 | 1015.6 |
| 20260509225104 | 59 | 125 | 1.0 | 3.0 | 0.00 | 0.00 | 0.00 | 85 | 1015.5 |
| 20260509224604 | 59 | 125 | 1.0 | 2.0 | 0.00 | 0.00 | 0.00 | 85 | 1015.5 |
| 20260509224107 | 59 | 125 | 2.0 | 2.0 | 0.00 | 0.00 | 0.00 | 85 | 1015.6 |
| 20260509223604 | 59 | 125 | 2.0 | 3.0 | 0.00 | 0.00 | 0.00 | 85 | 1015.7 |
| 20260509223104 | 59 | 125 | 2.0 | 2.0 | 0.00 | 0.00 | 0.00 | 85 | 1015.7 |
| 20260509222604 | 59 | 125 | 2.0 | 3.0 | 0.00 | 0.00 | 0.00 | 84 | 1015.8 |
| 20260509221604 | 59 | 125 | 2.0 | 3.0 | 0.00 | 0.00 | 0.00 | 84 | 1015.8 |
| 20260509221104 | 59 | 125 | 2.0 | 3.0 | 0.00 | 0.00 | 0.00 | 84 | 1015.9 |
| 20260509220605 | 59 | 134 | 1.0 | 5.0 | 0.00 | 0.00 | 0.00 | 83 | 1015.9 |
| 20260509220104 | 59 | 160 | 1.0 | 2.0 | 0.00 | 0.00 | 0.00 | 83 | 1015.9 |
| 20260509215604 | 59 | 160 | 1.0 | 2.0 | 0.00 | 0.00 | 0.00 | 82 | 1015.8 |
| 20260509215107 | 59 | 132 | 0.0 | 2.0 | 0.00 | 0.00 | 0.00 | 82 | 1015.8 |
| 20260509214606 | 59 | 132 | 0.0 | 2.0 | 0.00 | 0.00 | 0.00 | 82 | 1015.8 |
| 20260509214104 | 59 | 132 | 2.0 | 2.0 | 0.00 | 0.00 | 0.00 | 82 | 1015.9 |
| 20260509213604 | 60 | 132 | 2.0 | 2.0 | 0.00 | 0.00 | 0.00 | 81 | 1015.9 |
| 20260509213104 | 60 | 132 | 1.0 | 3.0 | 0.00 | 0.00 | 0.00 | 81 | 1015.9 |
| 20260509212607 | 60 | 132 | 0.0 | 2.0 | 0.00 | 0.00 | 0.00 | 81 | 1015.8 |
| 20260509212104 | 60 | 132 | 0.0 | 3.0 | 0.00 | 0.00 | 0.00 | 81 | 1015.8 |
| 20260509211104 | 60 | 132 | 2.0 | 0.0 | 0.00 | 0.00 | 0.00 | 80 | 1015.9 |
| 20260509210604 | 61 | 132 | 2.0 | 2.0 | 0.00 | 0.00 | 0.00 | 79 | 1015.9 |
| 20260509210108 | 61 | 132 | 1.0 | 2.0 | 0.00 | 0.00 | 0.00 | 79 | 1015.9 |
| 20260509205104 | 61 | 132 | 1.0 | 3.0 | 0.00 | 0.00 | 0.00 | 78 | 1015.9 |
| 20260509204607 | 62 | 136 | 0.0 | 2.0 | 0.00 | 0.00 | 0.00 | 78 | 1015.9 |
| 20260509204104 | 62 | 138 | 0.0 | 0.0 | 0.00 | 0.00 | 0.00 | 78 | 1015.9 |
| 20260509203104 | 62 | 138 | 1.0 | 2.0 | 0.00 | 0.00 | 0.00 | 78 | 1015.9 |
| 20260509202604 | 62 | 138 | 1.0 | 2.0 | 0.00 | 0.00 | 0.00 | 79 | 1015.9 |
| 20260509202104 | 62 | 138 | 1.0 | 2.0 | 0.00 | 0.00 | 0.00 | 79 | 1015.9 |
| 20260509201604 | 62 | 138 | 1.0 | 2.0 | 0.00 | 0.00 | 0.00 | 79 | 1015.9 |
| 20260509201104 | 63 | 138 | 1.0 | 2.0 | 0.00 | 0.00 | 0.00 | 79 | 1015.8 |
| 20260509200604 | 63 | 138 | 1.0 | 3.0 | 0.00 | 0.00 | 0.00 | 79 | 1015.7 |
| 20260509200104 | 63 | 138 | 2.0 | 2.0 | 0.00 | 0.00 | 0.00 | 79 | 1015.7 |
| 20260509195104 | 64 | 138 | 2.0 | 2.0 | 0.00 | 0.00 | 0.00 | 78 | 1015.6 |
| 20260509194604 | 64 | 138 | 2.0 | 2.0 | 0.00 | 0.00 | 0.00 | 78 | 1015.6 |
| 20260509194104 | 64 | 138 | 1.0 | 3.0 | 0.00 | 0.00 | 0.00 | 77 | 1015.5 |
| 20260509193611 | 64 | 138 | 1.0 | 3.0 | 0.00 | 0.00 | 0.00 | 77 | 1015.4 |
| 20260509193109 | 65 | 138 | 0.0 | 5.0 | 0.00 | 0.00 | 0.00 | 77 | 1015.4 |
| 20260509192104 | 65 | 152 | 0.0 | 2.0 | 0.00 | 0.00 | 0.00 | 76 | 1015.1 |
| 20260509191611 | 65 | 152 | 0.0 | 0.0 | 0.00 | 0.00 | 0.00 | 76 | 1015.1 |
| 20260509190611 | 66 | 152 | 0.0 | 0.0 | 0.00 | 0.00 | 0.00 | 73 | 1015.2 |
| 20260509190105 | 66 | 152 | 0.0 | 0.0 | 0.00 | 0.00 | 0.00 | 72 | 1015.2 |
| 20260509185604 | 68 | 152 | 0.0 | 0.0 | 0.00 | 0.00 | 0.00 | 70 | 1015.2 |
| 20260509185104 | 68 | 152 | 0.0 | 0.0 | 0.00 | 0.00 | 0.00 | 70 | 1015.2 |
| 20260509184604 | 68 | 152 | 0.0 | 0.0 | 0.00 | 0.00 | 0.00 | 70 | 1015.2 |
| 20260509184107 | 68 | 152 | 0.0 | 0.0 | 0.00 | 0.00 | 0.00 | 70 | 1015.1 |
| 20260509183605 | 68 | 152 | 0.0 | 0.0 | 0.00 | 0.00 | 0.00 | 69 | 1015.1 |
| 20260509182604 | 68 | 152 | 2.0 | 0.0 | 0.00 | 0.00 | 0.00 | 68 | 1015.0 |
| 20260509181604 | 69 | 152 | 2.0 | 3.0 | 0.00 | 0.00 | 0.00 | 67 | 1014.9 |
| 20260509181104 | 69 | 152 | 2.0 | 3.0 | 0.00 | 0.00 | 0.00 | 66 | 1014.8 |
| 20260509180604 | 70 | 154 | 2.0 | 3.0 | 0.00 | 0.00 | 0.00 | 65 | 1014.8 |
| 20260509180104 | 70 | 154 | 1.0 | 3.0 | 0.00 | 0.00 | 0.00 | 65 | 1014.8 |
| 20260509175604 | 70 | 154 | 1.0 | 3.0 | 0.00 | 0.00 | 0.00 | 65 | 1014.8 |
| 20260509175104 | 71 | 132 | 2.0 | 2.0 | 0.00 | 0.00 | 0.00 | 65 | 1014.8 |
| 20260509173104 | 71 | 130 | 2.0 | 5.0 | 0.00 | 0.00 | 0.00 | 63 | 1014.8 |
| 20260509172611 | 71 | 128 | 2.0 | 3.0 | 0.00 | 0.00 | 0.00 | 62 | 1014.9 |
| 20260509172105 | 71 | 127 | 2.0 | 2.0 | 0.00 | 0.00 | 0.00 | 62 | 1014.9 |
| 20260509171604 | 72 | 126 | 2.0 | 5.0 | 0.00 | 0.00 | 0.00 | 62 | 1014.9 |
| 20260509171104 | 72 | 141 | 2.0 | 5.0 | 0.00 | 0.00 | 0.00 | 61 | 1014.9 |
| 20260509170611 | 72 | 113 | 2.0 | 5.0 | 0.00 | 0.00 | 0.00 | 60 | 1014.9 |
| 20260509170105 | 73 | 121 | 2.0 | 5.0 | 0.00 | 0.00 | 0.00 | 59 | 1014.9 |
| 20260509165104 | 73 | 137 | 3.0 | 2.0 | 0.00 | 0.00 | 0.00 | 56 | 1015.0 |
| 20260509164606 | 74 | 136 | 3.0 | 5.0 | 0.00 | 0.00 | 0.00 | 55 | 1015.0 |
| 20260509164109 | 74 | 130 | 2.0 | 6.0 | 0.00 | 0.00 | 0.00 | 54 | 1015.1 |
| 20260509163105 | 75 | 143 | 2.0 | 5.0 | 0.00 | 0.00 | 0.00 | 47 | 1015.2 |
| 20260509162604 | 75 | 137 | 2.0 | 5.0 | 0.00 | 0.00 | 0.00 | 47 | 1015.3 |
| 20260509161104 | 76 | 129 | 2.0 | 5.0 | 0.00 | 0.00 | 0.00 | 49 | 1015.4 |
| 20260509160104 | 76 | 111 | 2.0 | 3.0 | 0.00 | 0.00 | 0.00 | 49 | 1015.4 |
| 20260509155604 | 76 | 102 | 2.0 | 6.0 | 0.00 | 0.00 | 0.00 | 49 | 1015.5 |
| 20260509155104 | 77 | 112 | 1.0 | 5.0 | 0.00 | 0.00 | 0.00 | 47 | 1015.5 |
| 20260509154605 | 77 | 122 | 0.0 | 5.0 | 0.00 | 0.00 | 0.00 | 46 | 1015.5 |
| 20260509154104 | 77 | 121 | 2.0 | 2.0 | 0.00 | 0.00 | 0.00 | 47 | 1015.6 |